Regional Weather Roundup
Issued by NWS State College, PA

Home | Current Version | Previous Version | Text Only | Print | Product List | Glossary Off
Versions: 1 2 3 4 5 6 7 8 9 10 11 12 13 14 15 16 17 18 19 20 21 22 23 24 25 26 27 28 29 30 31 32 33 34 35 36 37 38 39 40 41 42 43 44 45 46 47 48 49 50

000
ASUS41 KCTP 301603
RWRCTP

REGIONAL WEATHER ROUNDUP
NATIONAL WEATHER SERVICE STATE COLLEGE PA
1200 PM EDT THU JUL 30 2015

Note: "fair" indicates few or no clouds below 12,000 feet with no
significant weather and/or obstructions to visibility.

* = STATION THAT DOES NOT REPORT PRECIPITATION /E.G. RAIN...SNOW...ETC/
    THUNDER OR FOG.

PAZ002>004-007>009-013>016-020>023-029>032-301700-
WESTERN PENNSYLVANIA

CITY           SKY/WX    TMP DP  RH WIND       PRES   REMARKS
ERIE           SUNNY     79  63  57 W13       29.95R
MEADVILLE      LGT RAIN  81  58  45 W13       29.99R
FRANKLIN*      MOSUNNY   79  59  50 W9        30.00S
NEW CASTLE     FAIR      83  57  40 W6        29.99S
BEAVER COUNTY  SUNNY     81  54  39 NW10G17   30.00R
BUTLER*        SUNNY     82  57  42 W8        30.01R
PITTSBURGH INT MOSUNNY   83  54  36 NW13      30.00R
PITTSBURGH     SUNNY     82  51  34 W8        29.99R
INDIANA*       MOSUNNY   81  61  50 NW6       30.02S
LATROBE        MOSUNNY   81  61  50 NW5       30.00R
WASHINGTON CO* NOT AVBL
$$

PAZ004>006-010>012-017>019-024>028-033>037-041-042-045-046-049>053-301700-
CENTRAL PENNSYLVANIA

CITY           SKY/WX    TMP DP  RH WIND       PRES   REMARKS
BRADFORD       SUNNY     77  54  44 W12       29.98S
DUBOIS         MOSUNNY   81  57  43 W9        29.98S
CLEARFIELD     MOSUNNY   82  59  45 W13       29.97R
JOHNSTOWN      MOSUNNY   77  59  53 W10G18    30.03R
ALTOONA        CLOUDY    78  70  76 SW7       29.98S
STATE COLLEGE  MOSUNNY   79  68  69 W12       29.95R
WILLIAMSPORT   PTSUNNY   80  73  79 W8        29.88S
SELINSGROVE    LGT RAIN  78  74  87 VRB3      29.90S FOG
FT INDIANTOWN  LGT RAIN  79  75  89 SW7       29.90F VSB 3/4
CAPITAL CITY   CLOUDY    81  76  84 SW7       29.90S
HARRISBURG     LGT RAIN  79  75  87 W10       29.90R FOG
YORK           PTSUNNY   85  76  74 W6        29.90F
$$

PAZ038>040-043-044-047-048-054-055-060>062-067>071-301700-
EASTERN PENNSYLVANIA

CITY           SKY/WX    TMP DP  RH WIND       PRES   REMARKS
SCRANTON       HVY RAIN  79  73  82 SW8       29.89S
MOUNT POCONO     N/A    N/A N/A N/A MISG      29.96R
ALLENTOWN      PTSUNNY   85  75  72 SW10      29.89S
QUAKERTOWN*    CLOUDY    82  75  78 SW8       29.91F
READING        CLOUDY    85  74  69 SW10      29.88F
LANCASTER      CLOUDY    84  75  74 S5        29.89F
COATESVILLE    CLOUDY    81  75  83 SW5       29.93S
POTTSTOWN      CLOUDY    82  75  79 S6        29.91F
BLUE BELL      PTSUNNY   86  77  74 SW7       29.89F HX  97
DOYLESTOWN     CLOUDY    82  74  76 SW6       29.89S
WILLOW GROVE   NOT AVBL
NORTH PHILA    PTSUNNY   88  72  58 SW12      29.90S
PHILADELPHIA   CLOUDY    87  73  62 SW13G22   29.90S
$$



USA.gov is the U.S. government's official web portal to all federal, state and local government web resources and services.